contact:dominique.lefevre@mio.osupytheas.fr, maurice.libes@osupytheas.fr, didier.mallarino@osupytheas.fr
Project:EMSO http://www.emso-fr.org/EMSO-France
Depth: 2436.0 m
Title:EMSO Ligure Ouest : Data MII capteur MICROCAT
DateTime_Computer,Latitude,Longitude,Temperature,Conductivity,Pressure,DateTime_Instrument
DateTime_Computer,Latitude,Longitude,degC,S m-1,dbar,DateTime_Instrument
2022-01-19T00:00:17Z,42.805,6.029,13.3000,4.60026,2470.25,2022-1-19T02:01:48Z
2022-01-19T00:03:20Z,42.805,6.029,13.2999,4.60024,2470.273,2022-1-19T02:04:51Z
2022-01-19T00:06:23Z,42.805,6.029,13.2998,4.60023,2470.264,2022-1-19T02:07:54Z
2022-01-19T00:09:26Z,42.805,6.029,13.3002,4.60024,2470.264,2022-1-19T02:10:57Z
2022-01-19T00:12:29Z,42.805,6.029,13.2998,4.60023,2470.25,2022-1-19T02:14:00Z
2022-01-19T00:15:32Z,42.805,6.029,13.2998,4.60025,2470.287,2022-1-19T02:17:04Z
2022-01-19T00:18:35Z,42.805,6.029,13.2996,4.60023,2470.264,2022-1-19T02:20:07Z
2022-01-19T00:21:38Z,42.805,6.029,13.2995,4.60022,2470.287,2022-1-19T02:23:10Z
2022-01-19T00:24:42Z,42.805,6.029,13.2999,4.60025,2470.24,2022-1-19T02:26:13Z
2022-01-19T00:27:45Z,42.805,6.029,13.3003,4.60023,2470.217,2022-1-19T02:29:16Z
2022-01-19T00:30:48Z,42.805,6.029,13.2997,4.60022,2470.25,2022-1-19T02:32:19Z
2022-01-19T00:33:51Z,42.805,6.029,13.2998,4.60025,2470.227,2022-1-19T02:35:22Z
2022-01-19T00:36:54Z,42.805,6.029,13.2998,4.60024,2470.287,2022-1-19T02:38:25Z
2022-01-19T00:39:57Z,42.805,6.029,13.2999,4.60023,2470.25,2022-1-19T02:41:29Z
2022-01-19T00:43:00Z,42.805,6.029,13.2999,4.60022,2470.264,2022-1-19T02:44:32Z
2022-01-19T00:46:03Z,42.805,6.029,13.2996,4.60025,2470.24,2022-1-19T02:47:35Z
2022-01-19T00:49:07Z,42.805,6.029,13.2996,4.60022,2470.24,2022-1-19T02:50:38Z
2022-01-19T00:52:10Z,42.805,6.029,13.2999,4.60022,2470.24,2022-1-19T02:53:41Z
2022-01-19T00:55:13Z,42.805,6.029,13.2996,4.60022,2470.24,2022-1-19T02:56:44Z
2022-01-19T00:58:16Z,42.805,6.029,13.3000,4.60024,2470.203,2022-1-19T02:59:47Z
2022-01-19T01:01:19Z,42.805,6.029,13.3001,4.60022,2470.227,2022-1-19T03:02:50Z
2022-01-19T01:04:22Z,42.805,6.029,13.2998,4.60026,2470.25,2022-1-19T03:05:54Z
2022-01-19T01:07:25Z,42.805,6.029,13.2999,4.60024,2470.24,2022-1-19T03:08:57Z
2022-01-19T01:10:28Z,42.805,6.029,13.2997,4.60021,2470.25,2022-1-19T03:12:00Z
2022-01-19T01:13:32Z,42.805,6.029,13.2997,4.60022,2470.203,2022-1-19T03:15:03Z
2022-01-19T01:16:35Z,42.805,6.029,13.2998,4.60023,2470.24,2022-1-19T03:18:06Z
2022-01-19T01:19:38Z,42.805,6.029,13.3001,4.60023,2470.203,2022-1-19T03:21:09Z
2022-01-19T01:22:41Z,42.805,6.029,13.3001,4.60024,2470.227,2022-1-19T03:24:12Z
2022-01-19T01:25:44Z,42.805,6.029,13.3000,4.60026,2470.227,2022-1-19T03:27:15Z
2022-01-19T01:28:47Z,42.805,6.029,13.2996,4.60023,2470.217,2022-1-19T03:30:18Z
2022-01-19T01:31:50Z,42.805,6.029,13.3000,4.60022,2470.24,2022-1-19T03:33:22Z
2022-01-19T01:34:53Z,42.805,6.029,13.2998,4.60024,2470.217,2022-1-19T03:36:25Z
2022-01-19T01:37:57Z,42.805,6.029,13.2999,4.60024,2470.227,2022-1-19T03:39:28Z
2022-01-19T01:41:00Z,42.805,6.029,13.2996,4.60024,2470.217,2022-1-19T03:42:31Z
2022-01-19T01:44:03Z,42.805,6.029,13.2997,4.60022,2470.217,2022-1-19T03:45:34Z
2022-01-19T01:47:06Z,42.805,6.029,13.2998,4.60022,2470.25,2022-1-19T03:48:37Z
2022-01-19T01:50:09Z,42.805,6.029,13.2997,4.60022,2470.217,2022-1-19T03:51:40Z
2022-01-19T01:53:12Z,42.805,6.029,13.2998,4.60022,2470.203,2022-1-19T03:54:44Z
2022-01-19T01:56:15Z,42.805,6.029,13.2999,4.60024,2470.203,2022-1-19T03:57:47Z
2022-01-19T01:59:18Z,42.805,6.029,13.2999,4.60025,2470.24,2022-1-19T04:00:50Z
2022-01-19T02:02:22Z,42.805,6.029,13.2997,4.60024,2470.227,2022-1-19T04:03:53Z
2022-01-19T02:05:25Z,42.805,6.029,13.2998,4.60023,2470.227,2022-1-19T04:06:56Z
2022-01-19T02:08:28Z,42.805,6.029,13.2998,4.60024,2470.227,2022-1-19T04:09:59Z
2022-01-19T02:11:31Z,42.805,6.029,13.2996,4.60024,2470.25,2022-1-19T04:13:02Z
2022-01-19T02:14:34Z,42.805,6.029,13.2999,4.60024,2470.227,2022-1-19T04:16:05Z
2022-01-19T02:17:37Z,42.805,6.029,13.3000,4.60026,2470.24,2022-1-19T04:19:08Z
2022-01-19T02:20:40Z,42.805,6.029,13.2999,4.60023,2470.25,2022-1-19T04:22:12Z
2022-01-19T02:23:43Z,42.805,6.029,13.3002,4.60021,2470.217,2022-1-19T04:25:15Z
2022-01-19T02:26:47Z,42.805,6.029,13.3001,4.60022,2470.227,2022-1-19T04:28:18Z
2022-01-19T02:29:50Z,42.805,6.029,13.3000,4.60022,2470.203,2022-1-19T04:31:21Z
2022-01-19T02:32:53Z,42.805,6.029,13.3004,4.60025,2470.227,2022-1-19T04:34:24Z
2022-01-19T02:35:56Z,42.805,6.029,13.2996,4.60024,2470.24,2022-1-19T04:37:27Z
2022-01-19T02:38:59Z,42.805,6.029,13.2998,4.60022,2470.25,2022-1-19T04:40:30Z
2022-01-19T02:42:02Z,42.805,6.029,13.2996,4.60024,2470.264,2022-1-19T04:43:33Z
2022-01-19T02:45:05Z,42.805,6.029,13.3004,4.60022,2470.227,2022-1-19T04:46:37Z
2022-01-19T02:48:08Z,42.805,6.029,13.2999,4.60025,2470.227,2022-1-19T04:49:40Z
2022-01-19T02:51:12Z,42.805,6.029,13.3001,4.60023,2470.264,2022-1-19T04:52:43Z
2022-01-19T02:54:15Z,42.805,6.029,13.2998,4.60022,2470.25,2022-1-19T04:55:46Z
2022-01-19T02:57:18Z,42.805,6.029,13.3000,4.60024,2470.273,2022-1-19T04:58:49Z
2022-01-19T03:00:21Z,42.805,6.029,13.2998,4.60026,2470.227,2022-1-19T05:01:52Z
2022-01-19T03:03:24Z,42.805,6.029,13.3003,4.60026,2470.273,2022-1-19T05:04:55Z
2022-01-19T03:06:27Z,42.805,6.029,13.3000,4.60024,2470.227,2022-1-19T05:07:58Z
2022-01-19T03:09:30Z,42.805,6.029,13.2999,4.60027,2470.287,2022-1-19T05:11:02Z
2022-01-19T03:12:33Z,42.805,6.029,13.2997,4.60026,2470.287,2022-1-19T05:14:05Z
2022-01-19T03:15:36Z,42.805,6.029,13.3003,4.60023,2470.25,2022-1-19T05:17:08Z
2022-01-19T03:18:40Z,42.805,6.029,13.3000,4.60032,2470.287,2022-1-19T05:20:11Z
2022-01-19T03:21:43Z,42.805,6.029,13.2999,4.60024,2470.273,2022-1-19T05:23:14Z
2022-01-19T03:24:46Z,42.805,6.029,13.2996,4.60026,2470.236,2022-1-19T05:26:17Z
2022-01-19T03:27:49Z,42.805,6.029,13.2997,4.60024,2470.287,2022-1-19T05:29:20Z
2022-01-19T03:30:52Z,42.805,6.029,13.2998,4.60023,2470.297,2022-1-19T05:32:23Z
2022-01-19T03:33:55Z,42.805,6.029,13.2995,4.60025,2470.287,2022-1-19T05:35:27Z
2022-01-19T03:36:58Z,42.805,6.029,13.3004,4.60026,2470.297,2022-1-19T05:38:30Z
2022-01-19T03:40:02Z,42.805,6.029,13.2999,4.60023,2470.31,2022-1-19T05:41:33Z
2022-01-19T03:43:05Z,42.805,6.029,13.3004,4.60025,2470.273,2022-1-19T05:44:36Z
2022-01-19T03:46:08Z,42.805,6.029,13.2998,4.60024,2470.287,2022-1-19T05:47:39Z
2022-01-19T03:49:11Z,42.805,6.029,13.2998,4.60024,2470.32,2022-1-19T05:50:42Z
2022-01-19T03:52:14Z,42.805,6.029,13.2998,4.60024,2470.287,2022-1-19T05:53:45Z
2022-01-19T03:55:17Z,42.805,6.029,13.2998,4.60025,2470.343,2022-1-19T05:56:48Z
2022-01-19T03:58:20Z,42.805,6.029,13.2998,4.60027,2470.297,2022-1-19T05:59:52Z
2022-01-19T04:01:23Z,42.805,6.029,13.3000,4.60026,2470.287,2022-1-19T06:02:55Z
2022-01-19T04:04:26Z,42.805,6.029,13.3002,4.60024,2470.31,2022-1-19T06:05:58Z
2022-01-19T04:07:30Z,42.805,6.029,13.2997,4.60026,2470.32,2022-1-19T06:09:01Z
2022-01-19T04:10:33Z,42.805,6.029,13.2998,4.60026,2470.31,2022-1-19T06:12:04Z
2022-01-19T04:13:36Z,42.805,6.029,13.2998,4.60025,2470.357,2022-1-19T06:15:07Z
2022-01-19T04:16:39Z,42.805,6.029,13.3000,4.60026,2470.334,2022-1-19T06:18:10Z
2022-01-19T04:19:42Z,42.805,6.029,13.3000,4.60024,2470.343,2022-1-19T06:21:13Z
2022-01-19T04:22:45Z,42.805,6.029,13.2999,4.60025,2470.343,2022-1-19T06:24:16Z
2022-01-19T04:25:48Z,42.805,6.029,13.2995,4.60026,2470.32,2022-1-19T06:27:20Z
2022-01-19T04:28:51Z,42.805,6.029,13.3003,4.60029,2470.343,2022-1-19T06:30:23Z
2022-01-19T04:31:55Z,42.805,6.029,13.2998,4.60028,2470.366,2022-1-19T06:33:26Z
2022-01-19T04:34:58Z,42.805,6.029,13.3000,4.60026,2470.343,2022-1-19T06:36:29Z
2022-01-19T04:38:01Z,42.805,6.029,13.3000,4.60025,2470.343,2022-1-19T06:39:32Z
2022-01-19T04:41:04Z,42.805,6.029,13.3000,4.60024,2470.38,2022-1-19T06:42:35Z
2022-01-19T04:44:07Z,42.805,6.029,13.3000,4.60028,2470.366,2022-1-19T06:45:38Z
2022-01-19T04:47:10Z,42.805,6.029,13.2998,4.60026,2470.366,2022-1-19T06:48:41Z
2022-01-19T04:50:13Z,42.805,6.029,13.3003,4.60026,2470.366,2022-1-19T06:51:45Z
2022-01-19T04:53:16Z,42.805,6.029,13.2996,4.60026,2470.357,2022-1-19T06:54:48Z
2022-01-19T04:56:20Z,42.805,6.029,13.2999,4.60025,2470.404,2022-1-19T06:57:51Z
2022-01-19T04:59:23Z,42.805,6.029,13.2998,4.60027,2470.38,2022-1-19T07:00:54Z
2022-01-19T05:02:26Z,42.805,6.029,13.2999,4.60025,2470.404,2022-1-19T07:03:57Z
2022-01-19T05:05:29Z,42.805,6.029,13.2998,4.60025,2470.366,2022-1-19T07:07:00Z
2022-01-19T05:08:32Z,42.805,6.029,13.3004,4.60024,2470.404,2022-1-19T07:10:03Z
2022-01-19T05:11:35Z,42.805,6.029,13.3000,4.60024,2470.413,2022-1-19T07:13:06Z
2022-01-19T05:14:38Z,42.805,6.029,13.3000,4.60025,2470.413,2022-1-19T07:16:10Z
2022-01-19T05:17:41Z,42.805,6.029,13.3000,4.60026,2470.39,2022-1-19T07:19:13Z
2022-01-19T05:20:44Z,42.805,6.029,13.3002,4.60026,2470.413,2022-1-19T07:22:16Z
2022-01-19T05:23:48Z,42.805,6.029,13.2998,4.60026,2470.413,2022-1-19T07:25:19Z
2022-01-19T05:26:51Z,42.805,6.029,13.3000,4.60029,2470.45,2022-1-19T07:28:22Z
2022-01-19T05:29:54Z,42.805,6.029,13.2999,4.60026,2470.46,2022-1-19T07:31:25Z
2022-01-19T05:32:57Z,42.805,6.029,13.3000,4.60024,2470.427,2022-1-19T07:34:28Z
2022-01-19T05:36:00Z,42.805,6.029,13.3000,4.60029,2470.474,2022-1-19T07:37:31Z
2022-01-19T05:39:03Z,42.805,6.029,13.2998,4.60027,2470.437,2022-1-19T07:40:35Z
2022-01-19T05:42:06Z,42.805,6.029,13.3004,4.60026,2470.45,2022-1-19T07:43:38Z
2022-01-19T05:45:10Z,42.805,6.029,13.3000,4.60026,2470.427,2022-1-19T07:46:41Z
2022-01-19T05:48:13Z,42.805,6.029,13.3001,4.60026,2470.46,2022-1-19T07:49:44Z
2022-01-19T05:51:16Z,42.805,6.029,13.2998,4.60024,2470.474,2022-1-19T07:52:47Z
2022-01-19T05:54:19Z,42.805,6.029,13.2997,4.60026,2470.437,2022-1-19T07:55:50Z
2022-01-19T05:57:22Z,42.805,6.029,13.2998,4.60026,2470.497,2022-1-19T07:58:53Z
2022-01-19T06:00:25Z,42.805,6.029,13.2997,4.60026,2470.45,2022-1-19T08:01:56Z
2022-01-19T06:03:28Z,42.805,6.029,13.3004,4.60027,2470.474,2022-1-19T08:05:00Z
2022-01-19T06:06:31Z,42.805,6.029,13.3004,4.60026,2470.497,2022-1-19T08:08:03Z
2022-01-19T06:09:34Z,42.805,6.029,13.2997,4.60026,2470.46,2022-1-19T08:11:06Z
2022-01-19T06:12:38Z,42.805,6.029,13.2996,4.60026,2470.507,2022-1-19T08:14:09Z
2022-01-19T06:15:41Z,42.805,6.029,13.3002,4.60029,2470.507,2022-1-19T08:17:12Z
2022-01-19T06:18:44Z,42.805,6.029,13.2998,4.60027,2470.483,2022-1-19T08:20:15Z
2022-01-19T06:21:47Z,42.805,6.029,13.3000,4.60026,2470.497,2022-1-19T08:23:18Z
2022-01-19T06:24:50Z,42.805,6.029,13.2998,4.60026,2470.483,2022-1-19T08:26:21Z
2022-01-19T06:27:53Z,42.805,6.029,13.3000,4.60027,2470.507,2022-1-19T08:29:25Z
2022-01-19T06:30:56Z,42.805,6.029,13.3001,4.60026,2470.544,2022-1-19T08:32:28Z
2022-01-19T06:33:59Z,42.805,6.029,13.3003,4.60029,2470.483,2022-1-19T08:35:31Z
2022-01-19T06:37:03Z,42.805,6.029,13.2996,4.60026,2470.507,2022-1-19T08:38:34Z
2022-01-19T06:40:06Z,42.805,6.029,13.3000,4.60028,2470.507,2022-1-19T08:41:37Z
2022-01-19T06:43:09Z,42.805,6.029,13.2996,4.60029,2470.52,2022-1-19T08:44:40Z
2022-01-19T06:46:12Z,42.805,6.029,13.2997,4.60028,2470.507,2022-1-19T08:47:43Z
2022-01-19T06:49:15Z,42.805,6.029,13.2999,4.60027,2470.53,2022-1-19T08:50:46Z
2022-01-19T06:52:18Z,42.805,6.029,13.2998,4.60028,2470.591,2022-1-19T08:53:50Z
2022-01-19T06:55:21Z,42.805,6.029,13.3004,4.60028,2470.544,2022-1-19T08:56:53Z
2022-01-19T06:58:24Z,42.805,6.029,13.2998,4.60027,2470.507,2022-1-19T08:59:56Z
2022-01-19T07:01:28Z,42.805,6.029,13.3000,4.60029,2470.52,2022-1-19T09:02:59Z
2022-01-19T07:04:31Z,42.805,6.029,13.2999,4.60028,2470.53,2022-1-19T09:06:02Z
2022-01-19T07:07:34Z,42.805,6.029,13.2997,4.60028,2470.553,2022-1-19T09:09:05Z
2022-01-19T07:10:37Z,42.805,6.029,13.3002,4.60031,2470.53,2022-1-19T09:12:08Z
2022-01-19T07:13:40Z,42.805,6.029,13.2998,4.60028,2470.553,2022-1-19T09:15:11Z
2022-01-19T07:16:43Z,42.805,6.029,13.3000,4.60029,2470.567,2022-1-19T09:18:15Z
2022-01-19T07:19:46Z,42.805,6.029,13.2999,4.60031,2470.567,2022-1-19T09:21:18Z
2022-01-19T07:22:49Z,42.805,6.029,13.3002,4.60031,2470.553,2022-1-19T09:24:21Z
2022-01-19T07:25:53Z,42.805,6.029,13.2995,4.60029,2470.544,2022-1-19T09:27:24Z
2022-01-19T07:28:56Z,42.805,6.029,13.3003,4.60030,2470.6,2022-1-19T09:30:27Z
2022-01-19T07:31:59Z,42.805,6.029,13.3000,4.60026,2470.52,2022-1-19T09:33:30Z
2022-01-19T07:35:02Z,42.805,6.029,13.3001,4.60027,2470.553,2022-1-19T09:36:33Z
2022-01-19T07:38:05Z,42.805,6.029,13.3003,4.60028,2470.591,2022-1-19T09:39:36Z
2022-01-19T07:41:08Z,42.805,6.029,13.3003,4.60029,2470.544,2022-1-19T09:42:40Z
2022-01-19T07:44:11Z,42.805,6.029,13.3004,4.60028,2470.567,2022-1-19T09:45:43Z
2022-01-19T07:47:14Z,42.805,6.029,13.2997,4.60027,2470.53,2022-1-19T09:48:46Z
2022-01-19T07:50:18Z,42.805,6.029,13.2998,4.60029,2470.567,2022-1-19T09:51:49Z
2022-01-19T07:53:21Z,42.805,6.029,13.2996,4.60028,2470.567,2022-1-19T09:54:52Z
2022-01-19T07:56:24Z,42.805,6.029,13.3001,4.60030,2470.53,2022-1-19T09:57:55Z
2022-01-19T07:59:27Z,42.805,6.029,13.3001,4.60028,2470.553,2022-1-19T10:00:58Z
2022-01-19T08:02:30Z,42.805,6.029,13.3001,4.60028,2470.577,2022-1-19T10:04:01Z
2022-01-19T08:05:33Z,42.805,6.029,13.3000,4.60027,2470.553,2022-1-19T10:07:05Z
2022-01-19T08:08:36Z,42.805,6.029,13.3000,4.60031,2470.614,2022-1-19T10:10:08Z
2022-01-19T08:11:39Z,42.805,6.029,13.3001,4.60029,2470.553,2022-1-19T10:13:11Z
2022-01-19T08:14:43Z,42.805,6.029,13.2997,4.60028,2470.53,2022-1-19T10:16:14Z
2022-01-19T08:17:46Z,42.805,6.029,13.2998,4.60029,2470.553,2022-1-19T10:19:17Z
2022-01-19T08:20:49Z,42.805,6.029,13.3002,4.60031,2470.553,2022-1-19T10:22:20Z
2022-01-19T08:23:52Z,42.805,6.029,13.3000,4.60029,2470.544,2022-1-19T10:25:23Z
2022-01-19T08:26:55Z,42.805,6.029,13.2998,4.60033,2470.577,2022-1-19T10:28:26Z
2022-01-19T08:29:58Z,42.805,6.029,13.2999,4.60030,2470.553,2022-1-19T10:31:30Z
2022-01-19T08:33:01Z,42.805,6.029,13.3000,4.60029,2470.591,2022-1-19T10:34:33Z
2022-01-19T08:36:04Z,42.805,6.029,13.3000,4.60030,2470.577,2022-1-19T10:37:36Z
2022-01-19T08:39:08Z,42.805,6.029,13.3000,4.60029,2470.567,2022-1-19T10:40:39Z
2022-01-19T08:42:11Z,42.805,6.029,13.3001,4.60028,2470.6,2022-1-19T10:43:42Z
2022-01-19T08:45:14Z,42.805,6.029,13.3000,4.60029,2470.577,2022-1-19T10:46:45Z
2022-01-19T08:48:17Z,42.805,6.029,13.3003,4.60030,2470.577,2022-1-19T10:49:48Z
2022-01-19T08:51:20Z,42.805,6.029,13.3000,4.60031,2470.567,2022-1-19T10:52:51Z
2022-01-19T08:54:23Z,42.805,6.029,13.3000,4.60030,2470.567,2022-1-19T10:55:55Z
2022-01-19T08:57:26Z,42.805,6.029,13.3002,4.60029,2470.577,2022-1-19T10:58:58Z
2022-01-19T09:00:30Z,42.805,6.029,13.3001,4.60028,2470.567,2022-1-19T11:02:01Z
2022-01-19T09:03:33Z,42.805,6.029,13.3001,4.60028,2470.577,2022-1-19T11:05:04Z
2022-01-19T09:06:36Z,42.805,6.029,13.3001,4.60029,2470.553,2022-1-19T11:08:07Z
2022-01-19T09:09:39Z,42.805,6.029,13.2998,4.60028,2470.553,2022-1-19T11:11:10Z
2022-01-19T09:12:42Z,42.805,6.029,13.3003,4.60031,2470.591,2022-1-19T11:14:13Z
2022-01-19T09:15:45Z,42.805,6.029,13.2998,4.60029,2470.577,2022-1-19T11:17:16Z
2022-01-19T09:18:48Z,42.805,6.029,13.3002,4.60029,2470.567,2022-1-19T11:20:20Z
2022-01-19T09:21:51Z,42.805,6.029,13.3000,4.60029,2470.577,2022-1-19T11:23:23Z
2022-01-19T09:24:54Z,42.805,6.029,13.2999,4.60029,2470.591,2022-1-19T11:26:26Z
2022-01-19T09:27:58Z,42.805,6.029,13.3003,4.60031,2470.567,2022-1-19T11:29:29Z
2022-01-19T09:31:01Z,42.805,6.029,13.3003,4.60031,2470.577,2022-1-19T11:32:32Z
2022-01-19T09:34:04Z,42.805,6.029,13.3003,4.60029,2470.591,2022-1-19T11:35:35Z
2022-01-19T09:37:07Z,42.805,6.029,13.3003,4.60029,2470.567,2022-1-19T11:38:38Z
2022-01-19T09:40:10Z,42.805,6.029,13.3003,4.60030,2470.591,2022-1-19T11:41:41Z
2022-01-19T09:43:13Z,42.805,6.029,13.2999,4.60031,2470.553,2022-1-19T11:44:45Z
2022-01-19T09:46:16Z,42.805,6.029,13.2999,4.60030,2470.6,2022-1-19T11:47:48Z
2022-01-19T09:49:20Z,42.805,6.029,13.2999,4.60029,2470.591,2022-1-19T11:50:51Z
2022-01-19T09:52:23Z,42.805,6.029,13.3003,4.60029,2470.567,2022-1-19T11:53:54Z
2022-01-19T09:55:26Z,42.805,6.029,13.3000,4.60030,2470.591,2022-1-19T11:56:57Z
2022-01-19T09:58:29Z,42.805,6.029,13.3003,4.60033,2470.553,2022-1-19T12:00:00Z
2022-01-19T10:01:32Z,42.805,6.029,13.3003,4.60031,2470.577,2022-1-19T12:03:03Z
2022-01-19T10:04:35Z,42.805,6.029,13.3007,4.60029,2470.553,2022-1-19T12:06:06Z
2022-01-19T10:07:38Z,42.805,6.029,13.3005,4.60029,2470.553,2022-1-19T12:09:10Z
2022-01-19T10:10:41Z,42.805,6.029,13.3002,4.60032,2470.577,2022-1-19T12:12:13Z
2022-01-19T10:13:45Z,42.805,6.029,13.3001,4.60030,2470.567,2022-1-19T12:15:16Z
2022-01-19T10:16:48Z,42.805,6.029,13.2997,4.60029,2470.567,2022-1-19T12:18:19Z
2022-01-19T10:19:51Z,42.805,6.029,13.3001,4.60029,2470.577,2022-1-19T12:21:22Z
2022-01-19T10:22:54Z,42.805,6.029,13.3000,4.60029,2470.553,2022-1-19T12:24:25Z
2022-01-19T10:25:57Z,42.805,6.029,13.3003,4.60031,2470.553,2022-1-19T12:27:28Z
2022-01-19T10:29:00Z,42.805,6.029,13.3003,4.60032,2470.553,2022-1-19T12:30:31Z
2022-01-19T10:32:03Z,42.805,6.029,13.3000,4.60029,2470.567,2022-1-19T12:33:35Z
2022-01-19T10:35:06Z,42.805,6.029,13.3002,4.60029,2470.553,2022-1-19T12:36:38Z
2022-01-19T10:38:10Z,42.805,6.029,13.3005,4.60032,2470.553,2022-1-19T12:39:41Z
2022-01-19T10:41:13Z,42.805,6.029,13.2999,4.60032,2470.553,2022-1-19T12:42:44Z
2022-01-19T10:44:16Z,42.805,6.029,13.3005,4.60032,2470.553,2022-1-19T12:45:47Z
2022-01-19T10:47:19Z,42.805,6.029,13.3000,4.60032,2470.567,2022-1-19T12:48:50Z
2022-01-19T10:50:22Z,42.805,6.029,13.3004,4.60029,2470.553,2022-1-19T12:51:53Z
2022-01-19T10:53:25Z,42.805,6.029,13.3003,4.60031,2470.577,2022-1-19T12:54:57Z
2022-01-19T10:56:28Z,42.805,6.029,13.3001,4.60029,2470.577,2022-1-19T12:58:00Z
2022-01-19T10:59:31Z,42.805,6.029,13.3004,4.60029,2470.553,2022-1-19T13:01:03Z
2022-01-19T11:02:35Z,42.805,6.029,13.3000,4.60029,2470.53,2022-1-19T13:04:06Z
2022-01-19T11:05:38Z,42.805,6.029,13.2997,4.60027,2470.544,2022-1-19T13:07:09Z
2022-01-19T11:08:41Z,42.805,6.029,13.3001,4.60031,2470.553,2022-1-19T13:10:12Z
2022-01-19T11:11:44Z,42.805,6.029,13.3002,4.60030,2470.567,2022-1-19T13:13:15Z
2022-01-19T11:14:47Z,42.805,6.029,13.3001,4.60030,2470.507,2022-1-19T13:16:18Z
2022-01-19T11:17:50Z,42.805,6.029,13.3003,4.60031,2470.53,2022-1-19T13:19:22Z
2022-01-19T11:20:53Z,42.805,6.029,13.3005,4.60030,2470.553,2022-1-19T13:22:25Z
2022-01-19T11:23:56Z,42.805,6.029,13.2999,4.60029,2470.53,2022-1-19T13:25:28Z
2022-01-19T11:27:00Z,42.805,6.029,13.3000,4.60029,2470.544,2022-1-19T13:28:31Z
2022-01-19T11:30:03Z,42.805,6.029,13.3000,4.60031,2470.53,2022-1-19T13:31:34Z
2022-01-19T11:33:06Z,42.805,6.029,13.3002,4.60031,2470.544,2022-1-19T13:34:37Z
2022-01-19T11:36:09Z,42.805,6.029,13.3003,4.60029,2470.507,2022-1-19T13:37:40Z
2022-01-19T11:39:12Z,42.805,6.029,13.2998,4.60029,2470.553,2022-1-19T13:40:43Z
2022-01-19T11:42:15Z,42.805,6.029,13.3001,4.60029,2470.553,2022-1-19T13:43:47Z
2022-01-19T11:45:18Z,42.805,6.029,13.3003,4.60031,2470.53,2022-1-19T13:46:50Z
2022-01-19T11:48:21Z,42.805,6.029,13.3001,4.60029,2470.53,2022-1-19T13:49:53Z
2022-01-19T11:51:25Z,42.805,6.029,13.3001,4.60029,2470.544,2022-1-19T13:52:56Z
2022-01-19T11:54:28Z,42.805,6.029,13.3000,4.60029,2470.507,2022-1-19T13:55:59Z
2022-01-19T11:57:31Z,42.805,6.029,13.3006,4.60031,2470.52,2022-1-19T13:59:02Z
2022-01-19T12:00:34Z,42.805,6.029,13.3002,4.60029,2470.52,2022-1-19T14:02:05Z
2022-01-19T12:03:37Z,42.805,6.029,13.3000,4.60029,2470.52,2022-1-19T14:05:08Z
2022-01-19T12:06:40Z,42.805,6.029,13.3002,4.60028,2470.507,2022-1-19T14:08:12Z
2022-01-19T12:09:43Z,42.805,6.029,13.3003,4.60029,2470.52,2022-1-19T14:11:15Z
2022-01-19T12:12:46Z,42.805,6.029,13.3001,4.60030,2470.497,2022-1-19T14:14:18Z
2022-01-19T12:15:50Z,42.805,6.029,13.3002,4.60029,2470.497,2022-1-19T14:17:21Z
2022-01-19T12:18:53Z,42.805,6.029,13.3000,4.60028,2470.53,2022-1-19T14:20:24Z
2022-01-19T12:21:56Z,42.805,6.029,13.2998,4.60028,2470.493,2022-1-19T14:23:27Z
2022-01-19T12:24:59Z,42.805,6.029,13.3000,4.60028,2470.497,2022-1-19T14:26:30Z
2022-01-19T12:28:02Z,42.805,6.029,13.3003,4.60028,2470.497,2022-1-19T14:29:33Z
2022-01-19T12:31:05Z,42.805,6.029,13.3003,4.60029,2470.507,2022-1-19T14:32:37Z
2022-01-19T12:34:08Z,42.805,6.029,13.3005,4.60031,2470.497,2022-1-19T14:35:40Z
2022-01-19T12:37:12Z,42.805,6.029,13.2998,4.60029,2470.497,2022-1-19T14:38:43Z
2022-01-19T12:40:15Z,42.805,6.029,13.3003,4.60031,2470.46,2022-1-19T14:41:46Z
2022-01-19T12:43:18Z,42.805,6.029,13.3001,4.60029,2470.474,2022-1-19T14:44:49Z
2022-01-19T12:46:21Z,42.805,6.029,13.3000,4.60029,2470.483,2022-1-19T14:47:52Z
2022-01-19T12:49:24Z,42.805,6.029,13.3000,4.60030,2470.474,2022-1-19T14:50:55Z
2022-01-19T12:52:27Z,42.805,6.029,13.3003,4.60031,2470.474,2022-1-19T14:53:58Z
2022-01-19T12:55:30Z,42.805,6.029,13.3000,4.60029,2470.46,2022-1-19T14:57:02Z
2022-01-19T12:58:33Z,42.805,6.029,13.3000,4.60029,2470.497,2022-1-19T15:00:05Z
2022-01-19T13:01:37Z,42.805,6.029,13.3002,4.60029,2470.474,2022-1-19T15:03:08Z
2022-01-19T13:04:40Z,42.805,6.029,13.3004,4.60028,2470.46,2022-1-19T15:06:11Z
2022-01-19T13:07:43Z,42.805,6.029,13.3001,4.60033,2470.474,2022-1-19T15:09:14Z
2022-01-19T13:10:46Z,42.805,6.029,13.2998,4.60028,2470.45,2022-1-19T15:12:17Z
2022-01-19T13:13:49Z,42.805,6.029,13.3004,4.60031,2470.437,2022-1-19T15:15:20Z
2022-01-19T13:16:52Z,42.805,6.029,13.2998,4.60029,2470.46,2022-1-19T15:18:23Z
2022-01-19T13:19:55Z,42.805,6.029,13.2998,4.60029,2470.46,2022-1-19T15:21:27Z
2022-01-19T13:22:58Z,42.805,6.029,13.3003,4.60029,2470.45,2022-1-19T15:24:30Z
2022-01-19T13:26:02Z,42.805,6.029,13.3002,4.60027,2470.45,2022-1-19T15:27:33Z
2022-01-19T13:29:05Z,42.805,6.029,13.3000,4.60029,2470.437,2022-1-19T15:30:36Z
2022-01-19T13:32:08Z,42.805,6.029,13.3003,4.60029,2470.437,2022-1-19T15:33:39Z
2022-01-19T13:35:11Z,42.805,6.029,13.2998,4.60028,2470.437,2022-1-19T15:36:42Z
2022-01-19T13:38:14Z,42.805,6.029,13.2998,4.60028,2470.45,2022-1-19T15:39:45Z
2022-01-19T13:41:17Z,42.805,6.029,13.3002,4.60029,2470.437,2022-1-19T15:42:49Z
2022-01-19T13:44:20Z,42.805,6.029,13.3000,4.60029,2470.413,2022-1-19T15:45:52Z
2022-01-19T13:47:23Z,42.805,6.029,13.3002,4.60029,2470.427,2022-1-19T15:48:55Z
2022-01-19T13:50:27Z,42.805,6.029,13.3000,4.60031,2470.413,2022-1-19T15:51:58Z
2022-01-19T13:53:30Z,42.805,6.029,13.3001,4.60030,2470.413,2022-1-19T15:55:01Z
2022-01-19T13:56:33Z,42.805,6.029,13.3000,4.60029,2470.437,2022-1-19T15:58:04Z
2022-01-19T13:59:36Z,42.805,6.029,13.3005,4.60031,2470.413,2022-1-19T16:01:07Z
2022-01-19T14:02:39Z,42.805,6.029,13.3004,4.60029,2470.437,2022-1-19T16:04:10Z
2022-01-19T14:05:42Z,42.805,6.029,13.3001,4.60029,2470.45,2022-1-19T16:07:14Z
2022-01-19T14:08:45Z,42.805,6.029,13.3003,4.60027,2470.404,2022-1-19T16:10:17Z
2022-01-19T14:11:48Z,42.805,6.029,13.2999,4.60029,2470.413,2022-1-19T16:13:20Z
2022-01-19T14:14:52Z,42.805,6.029,13.2999,4.60029,2470.39,2022-1-19T16:16:23Z
2022-01-19T14:17:55Z,42.805,6.029,13.3000,4.60029,2470.39,2022-1-19T16:19:26Z
2022-01-19T14:20:58Z,42.805,6.029,13.3000,4.60027,2470.39,2022-1-19T16:22:29Z
2022-01-19T14:24:01Z,42.805,6.029,13.3001,4.60029,2470.413,2022-1-19T16:25:32Z
2022-01-19T14:27:04Z,42.805,6.029,13.3001,4.60029,2470.39,2022-1-19T16:28:35Z
2022-01-19T14:30:07Z,42.805,6.029,13.3004,4.60032,2470.427,2022-1-19T16:31:39Z
2022-01-19T14:33:10Z,42.805,6.029,13.3002,4.60032,2470.39,2022-1-19T16:34:42Z
2022-01-19T14:36:13Z,42.805,6.029,13.3000,4.60029,2470.39,2022-1-19T16:37:45Z
2022-01-19T14:39:17Z,42.805,6.029,13.3001,4.60029,2470.38,2022-1-19T16:40:48Z
2022-01-19T14:42:20Z,42.805,6.029,13.3000,4.60027,2470.427,2022-1-19T16:43:51Z
2022-01-19T14:45:23Z,42.805,6.029,13.3005,4.60031,2470.413,2022-1-19T16:46:54Z
2022-01-19T14:48:26Z,42.805,6.029,13.3001,4.60029,2470.366,2022-1-19T16:49:57Z
2022-01-19T14:51:29Z,42.805,6.029,13.3006,4.60028,2470.39,2022-1-19T16:53:00Z
2022-01-19T14:54:32Z,42.805,6.029,13.3000,4.60029,2470.404,2022-1-19T16:56:04Z
2022-01-19T14:57:35Z,42.805,6.029,13.3002,4.60028,2470.366,2022-1-19T16:59:07Z
2022-01-19T15:00:39Z,42.805,6.029,13.3005,4.60029,2470.404,2022-1-19T17:02:10Z
2022-01-19T15:03:42Z,42.805,6.029,13.3002,4.60031,2470.39,2022-1-19T17:05:13Z
2022-01-19T15:06:45Z,42.805,6.029,13.3000,4.60028,2470.366,2022-1-19T17:08:16Z
2022-01-19T15:09:48Z,42.805,6.029,13.3003,4.60029,2470.38,2022-1-19T17:11:19Z